QPF
0.01 0.00 0.00 0.00 0.01 0.01 0.01 0.01 0.01 0.01 0.01 0.02 0.02 0.02 0.02 0.01 0.02 0.05 0.07 0.07 0.09 0.11 0.12 0.13 0.17 0.17 0.11 0.10 0.09 0.10 0.12 0.12 0.11 0.11 0.12 0.14 0.16 0.16 0.17 0.18 0.14 0.13 0.13 0.12 0.13 0.15 0.17 0.16 0.14
0.00 0.00 0.00 0.01 0.01 0.01 0.01 0.01 0.01 0.01 0.01 0.01 0.01 0.01 0.00 0.01 0.01 0.02 0.05 0.07 0.07 0.07 0.09 0.11 0.15 0.16 0.13 0.10 0.10 0.11 0.11 0.11 0.10 0.10 0.12 0.12 0.14 0.16 0.15 0.15 0.12 0.10 0.12 0.15 0.15 0.19 0.20 0.16 0.13
0.00 0.00 0.00 0.01 0.00 0.01 0.01 0.02 0.02 0.01 0.01 0.01 0.01 0.00 0.00 0.01 0.01 0.03 0.05 0.06 0.05 0.05 0.08 0.11 0.22 0.23 0.14 0.11 0.10 0.10 0.10 0.09 0.09 0.09 0.10 0.11 0.12 0.13 0.12 0.12 0.11 0.09 0.13 0.20 0.21 0.21 0.18 0.14 0.11
0.00 0.00 0.00 0.01 0.00 0.00 0.01 0.01 0.01 0.01 0.00 0.01 0.00 0.00 0.01 0.01 0.02 0.03 0.03 0.03 0.04 0.05 0.08 0.11 0.21 0.17 0.15 0.15 0.14 0.11 0.11 0.10 0.09 0.08 0.08 0.09 0.11 0.11 0.10 0.10 0.09 0.09 0.15 0.23 0.22 0.19 0.16 0.12 0.07
0.00 0.00 0.00 0.00 0.00 0.01 0.01 0.01 0.01 0.00 0.01 0.00 0.00 0.00 0.01 0.02 0.01 0.01 0.01 0.02 0.03 0.04 0.08 0.12 0.18 0.16 0.14 0.15 0.12 0.13 0.12 0.10 0.08 0.08 0.08 0.08 0.10 0.12 0.10 0.10 0.11 0.11 0.20 0.22 0.17 0.13 0.13 0.13 0.11
0.00 0.00 0.00 0.00 0.00 0.01 0.00 0.00 0.00 0.01 0.00 0.00 0.00 0.00 0.02 0.03 0.02 0.01 0.01 0.02 0.02 0.03 0.07 0.09 0.14 0.15 0.13 0.14 0.12 0.11 0.10 0.09 0.08 0.09 0.08 0.09 0.11 0.11 0.09 0.10 0.12 0.19 0.25 0.20 0.15 0.11 0.10 0.12 0.11
0.00 0.00 0.00 0.00 0.00 0.00 0.00 0.00 0.01 0.01 0.00 0.00 0.00 0.01 0.02 0.04 0.03 0.01 0.01 0.01 0.01 0.01 0.03 0.06 0.10 0.12 0.13 0.13 0.12 0.13 0.11 0.10 0.09 0.11 0.10 0.09 0.10 0.10 0.09 0.12 0.17 0.21 0.20 0.17 0.16 0.15 0.13 0.12 0.10
0.00 0.00 0.00 0.00 0.00 0.01 0.00 0.00 0.00 0.00 0.00 0.00 0.00 0.01 0.02 0.03 0.03 0.01 0.01 0.01 0.01 0.02 0.03 0.03 0.04 0.10 0.12 0.11 0.10 0.12 0.11 0.11 0.12 0.13 0.12 0.11 0.11 0.11 0.12 0.17 0.20 0.19 0.15 0.15 0.17 0.17 0.15 0.12 0.11
0.00 0.00 0.00 0.00 0.00 0.00 0.00 0.00 0.00 0.00 0.00 0.00 0.00 0.01 0.01 0.01 0.02 0.01 0.01 0.01 0.01 0.01 0.02 0.02 0.02 0.06 0.09 0.07 0.08 0.09 0.09 0.10 0.14 0.16 0.15 0.15 0.14 0.13 0.16 0.17 0.20 0.24 0.15 0.14 0.17 0.15 0.13 0.12 0.11
0.00 0.00 0.00 0.00 0.00 0.00 0.00 0.00 0.00 0.00 0.00 0.01 0.00 0.00 0.00 0.01 0.01 0.01 0.01 0.01 0.02 0.01 0.00 0.01 0.02 0.04 0.06 0.05 0.04 0.06 0.05 0.05 0.06 0.07 0.06 0.06 0.07 0.09 0.13 0.17 0.25 0.26 0.16 0.13 0.14 0.15 0.12 0.09 0.09
0.00 0.00 0.00 0.00 0.00 0.00 0.00 0.00 0.00 0.00 0.00 0.01 0.00 0.00 0.00 0.00 0.00 0.00 0.01 0.01 0.01 0.01 0.01 0.01 0.02 0.03 0.04 0.04 0.03 0.03 0.03 0.03 0.04 0.04 0.04 0.04 0.04 0.05 0.11 0.23 0.28 0.21 0.14 0.12 0.12 0.12 0.08 0.06 0.08
0.00 0.00 0.00 0.00 0.00 0.00 0.00 0.00 0.00 0.00 0.00 0.00 0.00 0.00 0.00 0.00 0.00 0.00 0.01 0.01 0.01 0.01 0.01 0.01 0.02 0.02 0.03 0.03 0.03 0.03 0.02 0.03 0.03 0.03 0.02 0.03 0.04 0.04 0.07 0.13 0.15 0.12 0.12 0.12 0.10 0.07 0.06 0.06 0.07
0.00 0.00 0.00 0.00 0.00 0.00 0.00 0.00 0.00 0.00 0.00 0.00 0.00 0.00 0.00 0.00 0.00 0.00 0.00 0.00 0.01 0.00 0.01 0.01 0.01 0.01 0.01 0.02 0.03 0.02 0.02 0.02 0.03 0.03 0.03 0.04 0.04 0.04 0.05 0.07 0.07 0.08 0.09 0.09 0.09 0.06 0.05 0.06 0.07
0.00 0.00 0.00 0.00 0.00 0.00 0.00 0.00 0.00 0.01 0.00 0.00 0.01 0.01 0.00 0.01 0.02 0.01 0.01 0.01 0.00 0.01 0.01 0.01 0.01 0.01 0.01 0.02 0.02 0.01 0.02 0.02 0.02 0.02 0.03 0.04 0.06 0.10 0.13 0.12 0.10 0.09 0.09 0.08 0.07 0.04 0.04 0.04 0.04
0.00 0.00 0.00 0.00 0.00 0.00 0.00 0.00 0.00 0.00 0.00 0.00 0.01 0.01 0.00 0.01 0.02 0.02 0.01 0.01 0.01 0.01 0.01 0.01 0.01 0.01 0.01 0.01 0.01 0.01 0.01 0.02 0.02 0.03 0.03 0.04 0.07 0.14 0.15 0.15 0.14 0.12 0.10 0.07 0.05 0.04 0.04 0.04 0.03
0.00 0.00 0.00 0.00 0.00 0.00 0.00 0.01 0.01 0.00 0.00 0.00 0.01 0.01 0.01 0.01 0.01 0.01 0.01 0.01 0.01 0.01 0.01 0.01 0.01 0.00 0.00 0.01 0.02 0.02 0.02 0.02 0.02 0.02 0.04 0.04 0.05 0.06 0.08 0.10 0.09 0.09 0.06 0.06 0.08 0.06 0.05 0.05 0.05
0.00 0.00 0.01 0.00 0.00 0.00 0.00 0.01 0.01 0.01 0.00 0.01 0.01 0.00 0.01 0.01 0.01 0.01 0.00 0.01 0.01 0.01 0.01 0.01 0.01 0.00 0.01 0.01 0.02 0.02 0.03 0.03 0.03 0.03 0.03 0.03 0.03 0.03 0.05 0.06 0.07 0.08 0.07 0.07 0.06 0.06 0.07 0.06 0.06
0.00 0.00 0.00 0.00 0.00 0.00 0.00 0.00 0.00 0.00 0.00 0.00 0.00 0.00 0.00 0.01 0.01 0.00 0.00 0.00 0.01 0.00 0.01 0.01 0.01 0.02 0.01 0.01 0.02 0.02 0.03 0.02 0.02 0.03 0.03 0.03 0.04 0.03 0.05 0.07 0.09 0.10 0.11 0.10 0.09 0.08 0.08 0.06 0.06
0.00 0.00 0.00 0.00 0.00 0.00 0.00 0.00 0.00 0.00 0.00 0.00 0.01 0.01 0.00 0.00 0.01 0.01 0.01 0.00 0.01 0.01 0.01 0.02 0.02 0.02 0.03 0.03 0.02 0.03 0.03 0.03 0.03 0.02 0.02 0.02 0.02 0.03 0.06 0.09 0.10 0.09 0.09 0.09 0.09 0.08 0.08 0.07 0.05
0.00 0.00 0.00 0.00 0.00 0.00 0.00 0.00 0.00 0.00 0.00 0.00 0.00 0.00 0.00 0.00 0.01 0.01 0.01 0.01 0.02 0.02 0.01 0.01 0.02 0.02 0.02 0.03 0.03 0.02 0.03 0.03 0.03 0.02 0.02 0.02 0.03 0.04 0.04 0.06 0.06 0.06 0.08 0.09 0.09 0.08 0.08 0.06 0.05
0.00 0.00 0.00 0.00 0.00 0.00 0.00 0.00 0.00 0.00 0.00 0.00 0.00 0.00 0.00 0.00 0.00 0.00 0.01 0.01 0.02 0.02 0.02 0.01 0.01 0.01 0.02 0.02 0.02 0.02 0.03 0.03 0.03 0.03 0.04 0.03 0.03 0.03 0.04 0.05 0.05 0.05 0.06 0.08 0.07 0.07 0.08 0.07 0.06
0.00 0.00 0.00 0.00 0.00 0.00 0.00 0.00 0.00 0.00 0.00 0.00 0.00 0.00 0.00 0.00 0.00 0.00 0.00 0.01 0.01 0.01 0.01 0.01 0.00 0.00 0.01 0.02 0.01 0.02 0.02 0.03 0.04 0.05 0.03 0.03 0.04 0.03 0.03 0.05 0.05 0.05 0.07 0.08 0.07 0.07 0.08 0.10 0.08
0.00 0.00 0.00 0.00 0.00 0.00 0.00 0.00 0.00 0.00 0.00 0.00 0.00 0.00 0.00 0.00 0.00 0.00 0.01 0.01 0.00 0.01 0.01 0.01 0.00 0.00 0.00 0.01 0.01 0.01 0.01 0.03 0.03 0.03 0.03 0.03 0.02 0.02 0.02 0.04 0.05 0.06 0.06 0.06 0.07 0.09 0.10 0.09 0.09
0.00 0.00 0.00 0.00 0.00 0.00 0.00 0.00 0.00 0.00 0.00 0.00 0.00 0.00 0.00 0.00 0.00 0.00 0.00 0.01 0.01 0.01 0.01 0.02 0.01 0.00 0.00 0.01 0.01 0.01 0.02 0.03 0.03 0.03 0.03 0.03 0.02 0.02 0.02 0.02 0.04 0.05 0.05 0.04 0.05 0.07 0.07 0.06 0.06
0.00 0.00 0.00 0.00 0.00 0.00 0.00 0.00 0.00 0.00 0.00 0.00 0.00 0.00 0.00 0.00 0.00 0.00 0.00 0.01 0.01 0.01 0.01 0.01 0.01 0.00 0.00 0.00 0.00 0.01 0.01 0.02 0.03 0.03 0.03 0.03 0.02 0.02 0.03 0.04 0.05 0.05 0.06 0.06 0.06 0.06 0.07 0.07 0.06
0.00 0.00 0.00 0.00 0.00 0.00 0.00 0.00 0.00 0.00 0.00 0.00 0.00 0.00 0.00 0.00 0.00 0.00 0.00 0.00 0.01 0.02 0.01 0.00 0.00 0.00 0.00 0.00 0.01 0.01 0.01 0.01 0.02 0.03 0.03 0.03 0.03 0.03 0.03 0.04 0.04 0.05 0.05 0.05 0.07 0.07 0.08 0.08 0.06
0.00 0.00 0.00 0.00 0.00 0.00 0.00 0.00 0.00 0.00 0.00 0.00 0.00 0.00 0.00 0.00 0.00 0.00 0.00 0.00 0.00 0.01 0.00 0.00 0.00 0.00 0.00 0.01 0.01 0.02 0.01 0.02 0.02 0.03 0.03 0.03 0.03 0.02 0.02 0.02 0.04 0.05 0.05 0.05 0.06 0.06 0.06 0.05 0.05
0.00 0.00 0.00 0.00 0.00 0.00 0.00 0.00 0.00 0.00 0.00 0.00 0.00 0.00 0.00 0.00 0.00 0.00 0.00 0.00 0.00 0.01 0.01 0.00 0.00 0.00 0.00 0.01 0.01 0.01 0.01 0.01 0.02 0.04 0.04 0.03 0.03 0.03 0.02 0.03 0.04 0.04 0.04 0.06 0.07 0.05 0.05 0.05 0.05
0.00 0.00 0.00 0.00 0.00 0.00 0.00 0.00 0.00 0.00 0.00 0.00 0.00 0.00 0.00 0.00 0.00 0.00 0.00 0.00 0.00 0.01 0.01 0.01 0.01 0.01 0.01 0.00 0.00 0.01 0.01 0.02 0.02 0.04 0.04 0.05 0.05 0.04 0.04 0.05 0.05 0.05 0.04 0.05 0.06 0.05 0.05 0.06 0.05
0.00 0.00 0.00 0.00 0.00 0.00 0.00 0.00 0.00 0.00 0.00 0.00 0.00 0.00 0.00 0.00 0.00 0.00 0.00 0.00 0.00 0.00 0.01 0.01 0.01 0.01 0.01 0.01 0.01 0.02 0.02 0.02 0.02 0.02 0.03 0.05 0.07 0.08 0.07 0.07 0.07 0.06 0.05 0.04 0.04 0.06 0.07 0.07 0.05
MSLP
1009.25 1009.79 1010.44 1011.13 1011.77 1012.30 1012.66 1012.84 1012.85 1012.73 1012.54 1012.33 1012.14 1011.97 1011.81 1011.65 1011.44 1011.19 1010.89 1010.59 1010.33 1010.15 1010.09 1010.17 1010.37 1010.66 1010.97 1011.26 1011.50 1011.67 1011.80 1011.91 1012.05 1012.26 1012.55 1012.91 1013.32 1013.73 1014.12 1014.44 1014.71 1014.93 1015.13 1015.34 1015.59 1015.87 1016.17 1016.47 1016.73
1009.40 1010.03 1010.74 1011.47 1012.13 1012.65 1012.99 1013.13 1013.09 1012.92 1012.68 1012.43 1012.19 1011.99 1011.80 1011.62 1011.41 1011.17 1010.90 1010.63 1010.42 1010.29 1010.28 1010.40 1010.64 1010.95 1011.29 1011.61 1011.87 1012.08 1012.25 1012.40 1012.58 1012.80 1013.09 1013.43 1013.79 1014.14 1014.46 1014.73 1014.95 1015.15 1015.35 1015.58 1015.86 1016.19 1016.53 1016.86 1017.13
1009.62 1010.28 1011.00 1011.72 1012.34 1012.82 1013.11 1013.20 1013.12 1012.92 1012.66 1012.39 1012.14 1011.93 1011.74 1011.56 1011.36 1011.14 1010.90 1010.67 1010.50 1010.42 1010.45 1010.62 1010.89 1011.24 1011.61 1011.97 1012.28 1012.54 1012.76 1012.95 1013.16 1013.40 1013.67 1013.98 1014.29 1014.58 1014.84 1015.05 1015.24 1015.43 1015.65 1015.91 1016.23 1016.59 1016.96 1017.30 1017.57
1009.83 1010.48 1011.16 1011.81 1012.36 1012.76 1012.99 1013.03 1012.93 1012.73 1012.48 1012.23 1012.00 1011.82 1011.66 1011.50 1011.33 1011.13 1010.92 1010.73 1010.60 1010.55 1010.63 1010.83 1011.15 1011.53 1011.94 1012.34 1012.70 1013.01 1013.28 1013.52 1013.76 1014.01 1014.28 1014.56 1014.83 1015.07 1015.28 1015.46 1015.63 1015.82 1016.06 1016.35 1016.69 1017.07 1017.44 1017.76 1017.99
1009.96 1010.54 1011.14 1011.69 1012.14 1012.46 1012.62 1012.63 1012.53 1012.36 1012.16 1011.98 1011.82 1011.69 1011.58 1011.47 1011.33 1011.16 1010.98 1010.83 1010.73 1010.72 1010.83 1011.06 1011.41 1011.82 1012.27 1012.71 1013.11 1013.46 1013.77 1014.05 1014.32 1014.59 1014.86 1015.13 1015.37 1015.59 1015.78 1015.95 1016.12 1016.32 1016.57 1016.87 1017.22 1017.58 1017.92 1018.18 1018.35
1009.93 1010.42 1010.90 1011.33 1011.68 1011.91 1012.03 1012.04 1011.98 1011.87 1011.77 1011.68 1011.63 1011.59 1011.55 1011.49 1011.39 1011.26 1011.11 1010.98 1010.91 1010.93 1011.07 1011.32 1011.68 1012.12 1012.58 1013.03 1013.46 1013.84 1014.18 1014.49 1014.79 1015.08 1015.36 1015.63 1015.88 1016.10 1016.30 1016.48 1016.67 1016.88 1017.14 1017.44 1017.76 1018.08 1018.34 1018.53 1018.61
1009.73 1010.10 1010.46 1010.77 1011.01 1011.18 1011.28 1011.32 1011.33 1011.33 1011.35 1011.39 1011.46 1011.52 1011.57 1011.58 1011.53 1011.43 1011.31 1011.21 1011.15 1011.19 1011.34 1011.61 1011.98 1012.41 1012.86 1013.31 1013.73 1014.12 1014.47 1014.80 1015.11 1015.43 1015.73 1016.03 1016.31 1016.56 1016.79 1017.00 1017.21 1017.44 1017.70 1017.98 1018.25 1018.50 1018.68 1018.77 1018.74
1009.38 1009.64 1009.87 1010.08 1010.24 1010.37 1010.48 1010.57 1010.67 1010.79 1010.94 1011.13 1011.32 1011.50 1011.64 1011.71 1011.71 1011.66 1011.57 1011.48 1011.45 1011.50 1011.66 1011.93 1012.28 1012.69 1013.12 1013.54 1013.94 1014.30 1014.64 1014.96 1015.29 1015.62 1015.96 1016.30 1016.62 1016.91 1017.19 1017.44 1017.68 1017.93 1018.18 1018.43 1018.66 1018.83 1018.93 1018.91 1018.80
1008.96 1009.12 1009.26 1009.38 1009.49 1009.60 1009.72 1009.87 1010.07 1010.31 1010.59 1010.91 1011.22 1011.50 1011.72 1011.86 1011.91 1011.89 1011.84 1011.78 1011.77 1011.84 1012.01 1012.26 1012.60 1012.98 1013.36 1013.74 1014.08 1014.40 1014.71 1015.02 1015.34 1015.69 1016.06 1016.43 1016.80 1017.15 1017.48 1017.78 1018.05 1018.31 1018.56 1018.78 1018.96 1019.07 1019.09 1019.01 1018.83
1008.59 1008.68 1008.74 1008.80 1008.87 1008.97 1009.12 1009.32 1009.60 1009.93 1010.32 1010.73 1011.13 1011.49 1011.78 1011.98 1012.08 1012.10 1012.08 1012.06 1012.08 1012.17 1012.34 1012.60 1012.91 1013.25 1013.59 1013.91 1014.20 1014.46 1014.72 1015.00 1015.32 1015.67 1016.06 1016.47 1016.89 1017.29 1017.66 1018.00 1018.30 1018.57 1018.81 1019.02 1019.16 1019.24 1019.22 1019.10 1018.89
1008.37 1008.41 1008.43 1008.45 1008.49 1008.59 1008.74 1008.98 1009.29 1009.68 1010.12 1010.59 1011.05 1011.46 1011.79 1012.03 1012.17 1012.23 1012.25 1012.28 1012.33 1012.45 1012.64 1012.90 1013.19 1013.50 1013.80 1014.06 1014.29 1014.51 1014.72 1014.97 1015.26 1015.62 1016.02 1016.46 1016.90 1017.34 1017.74 1018.11 1018.43 1018.71 1018.95 1019.14 1019.28 1019.34 1019.32 1019.21 1019.01
1008.36 1008.37 1008.37 1008.37 1008.39 1008.47 1008.62 1008.85 1009.16 1009.56 1010.00 1010.48 1010.95 1011.37 1011.72 1011.99 1012.16 1012.27 1012.34 1012.40 1012.50 1012.65 1012.87 1013.13 1013.43 1013.72 1013.98 1014.20 1014.39 1014.56 1014.73 1014.95 1015.22 1015.57 1015.97 1016.42 1016.88 1017.33 1017.75 1018.13 1018.45 1018.74 1018.98 1019.17 1019.32 1019.40 1019.41 1019.34 1019.19
1008.54 1008.56 1008.55 1008.54 1008.56 1008.62 1008.74 1008.93 1009.20 1009.55 1009.95 1010.39 1010.83 1011.24 1011.59 1011.86 1012.06 1012.20 1012.31 1012.43 1012.57 1012.76 1013.00 1013.29 1013.58 1013.87 1014.12 1014.32 1014.48 1014.61 1014.76 1014.95 1015.21 1015.53 1015.93 1016.37 1016.83 1017.28 1017.69 1018.06 1018.38 1018.66 1018.90 1019.11 1019.28 1019.40 1019.46 1019.46 1019.38
1008.85 1008.89 1008.90 1008.90 1008.91 1008.95 1009.03 1009.17 1009.37 1009.64 1009.96 1010.33 1010.71 1011.07 1011.40 1011.67 1011.89 1012.06 1012.20 1012.35 1012.53 1012.76 1013.03 1013.33 1013.65 1013.94 1014.19 1014.38 1014.54 1014.66 1014.80 1014.97 1015.20 1015.51 1015.88 1016.30 1016.74 1017.16 1017.55 1017.90 1018.20 1018.47 1018.71 1018.93 1019.13 1019.30 1019.43 1019.50 1019.50
1009.19 1009.25 1009.29 1009.31 1009.33 1009.36 1009.40 1009.48 1009.60 1009.77 1010.00 1010.28 1010.58 1010.89 1011.19 1011.45 1011.67 1011.86 1012.03 1012.21 1012.42 1012.66 1012.96 1013.28 1013.60 1013.91 1014.17 1014.39 1014.55 1014.68 1014.81 1014.97 1015.19 1015.47 1015.81 1016.19 1016.58 1016.97 1017.33 1017.64 1017.92 1018.16 1018.40 1018.63 1018.86 1019.08 1019.27 1019.41 1019.49
1009.44 1009.54 1009.62 1009.68 1009.73 1009.75 1009.77 1009.79 1009.83 1009.91 1010.04 1010.22 1010.45 1010.70 1010.96 1011.20 1011.43 1011.62 1011.81 1012.00 1012.22 1012.48 1012.79 1013.12 1013.46 1013.79 1014.08 1014.31 1014.49 1014.64 1014.78 1014.93 1015.12 1015.37 1015.67 1016.00 1016.35 1016.69 1017.00 1017.28 1017.52 1017.75 1017.98 1018.21 1018.47 1018.72 1018.96 1019.16 1019.30
1009.54 1009.68 1009.82 1009.93 1010.02 1010.06 1010.07 1010.04 1010.01 1010.01 1010.04 1010.13 1010.28 1010.48 1010.71 1010.93 1011.15 1011.36 1011.55 1011.75 1011.97 1012.23 1012.53 1012.87 1013.23 1013.58 1013.89 1014.16 1014.37 1014.54 1014.68 1014.82 1014.99 1015.20 1015.44 1015.72 1016.02 1016.30 1016.57 1016.82 1017.03 1017.25 1017.46 1017.70 1017.97 1018.25 1018.53 1018.77 1018.96
1009.50 1009.68 1009.87 1010.06 1010.19 1010.27 1010.27 1010.21 1010.12 1010.03 1009.98 1009.99 1010.07 1010.21 1010.40 1010.61 1010.83 1011.03 1011.23 1011.43 1011.65 1011.90 1012.20 1012.54 1012.91 1013.29 1013.63 1013.94 1014.18 1014.37 1014.52 1014.65 1014.79 1014.95 1015.14 1015.36 1015.60 1015.84 1016.07 1016.29 1016.49 1016.69 1016.90 1017.14 1017.41 1017.71 1018.01 1018.28 1018.50
1009.38 1009.59 1009.85 1010.10 1010.29 1010.39 1010.40 1010.31 1010.15 1009.98 1009.84 1009.76 1009.76 1009.85 1010.01 1010.20 1010.41 1010.62 1010.81 1011.01 1011.23 1011.48 1011.78 1012.13 1012.52 1012.93 1013.31 1013.66 1013.94 1014.15 1014.31 1014.43 1014.54 1014.65 1014.79 1014.96 1015.14 1015.34 1015.54 1015.74 1015.93 1016.13 1016.35 1016.59 1016.86 1017.16 1017.46 1017.75 1018.00
1009.25 1009.51 1009.83 1010.14 1010.38 1010.50 1010.49 1010.35 1010.13 1009.86 1009.61 1009.44 1009.36 1009.39 1009.50 1009.67 1009.87 1010.08 1010.28 1010.48 1010.70 1010.96 1011.27 1011.64 1012.05 1012.50 1012.93 1013.32 1013.65 1013.89 1014.06 1014.17 1014.25 1014.33 1014.41 1014.53 1014.67 1014.84 1015.03 1015.22 1015.42 1015.62 1015.84 1016.08 1016.35 1016.64 1016.95 1017.24 1017.50
1009.21 1009.53 1009.91 1010.27 1010.54 1010.66 1010.62 1010.41 1010.09 1009.71 1009.34 1009.05 1008.87 1008.82 1008.88 1009.02 1009.20 1009.40 1009.61 1009.81 1010.04 1010.31 1010.64 1011.04 1011.50 1011.99 1012.48 1012.92 1013.30 1013.58 1013.77 1013.89 1013.95 1013.98 1014.03 1014.11 1014.23 1014.38 1014.56 1014.76 1014.97 1015.18 1015.41 1015.65 1015.91 1016.19 1016.49 1016.78 1017.04
1009.30 1009.68 1010.12 1010.52 1010.81 1010.91 1010.81 1010.52 1010.08 1009.57 1009.07 1008.65 1008.36 1008.21 1008.20 1008.29 1008.45 1008.63 1008.83 1009.04 1009.28 1009.56 1009.91 1010.34 1010.84 1011.39 1011.94 1012.44 1012.88 1013.20 1013.42 1013.55 1013.60 1013.63 1013.65 1013.71 1013.81 1013.96 1014.14 1014.36 1014.59 1014.82 1015.05 1015.29 1015.53 1015.79 1016.07 1016.34 1016.60
1009.49 1009.95 1010.44 1010.88 1011.17 1011.25 1011.08 1010.69 1010.13 1009.48 1008.85 1008.30 1007.89 1007.64 1007.55 1007.58 1007.69 1007.84 1008.02 1008.22 1008.45 1008.74 1009.10 1009.56 1010.10 1010.69 1011.30 1011.87 1012.36 1012.73 1012.99 1013.14 1013.20 1013.23 1013.25 1013.30 1013.41 1013.57 1013.77 1014.00 1014.25 1014.49 1014.72 1014.95 1015.17 1015.40 1015.65 1015.90 1016.15
1009.69 1010.23 1010.79 1011.27 1011.56 1011.60 1011.38 1010.90 1010.24 1009.49 1008.73 1008.07 1007.56 1007.21 1007.03 1006.99 1007.03 1007.14 1007.27 1007.43 1007.63 1007.91 1008.27 1008.73 1009.30 1009.92 1010.57 1011.19 1011.72 1012.15 1012.45 1012.63 1012.72 1012.76 1012.80 1012.87 1013.00 1013.18 1013.40 1013.66 1013.92 1014.17 1014.40 1014.61 1014.80 1014.99 1015.19 1015.41 1015.64
1009.79 1010.42 1011.04 1011.55 1011.86 1011.89 1011.63 1011.11 1010.39 1009.57 1008.75 1008.02 1007.43 1007.01 1006.76 1006.63 1006.60 1006.63 1006.69 1006.78 1006.93 1007.15 1007.48 1007.92 1008.48 1009.11 1009.78 1010.42 1011.00 1011.46 1011.80 1012.02 1012.14 1012.22 1012.29 1012.39 1012.55 1012.76 1013.02 1013.30 1013.57 1013.83 1014.04 1014.22 1014.38 1014.52 1014.68 1014.86 1015.07
1009.69 1010.40 1011.08 1011.62 1011.95 1012.00 1011.75 1011.24 1010.54 1009.72 1008.91 1008.16 1007.55 1007.10 1006.78 1006.59 1006.47 1006.40 1006.36 1006.36 1006.42 1006.56 1006.82 1007.21 1007.72 1008.33 1008.98 1009.63 1010.22 1010.70 1011.07 1011.33 1011.49 1011.61 1011.73 1011.87 1012.07 1012.32 1012.62 1012.92 1013.21 1013.46 1013.66 1013.81 1013.92 1014.02 1014.14 1014.28 1014.47
1009.36 1010.11 1010.82 1011.40 1011.76 1011.85 1011.67 1011.23 1010.61 1009.89 1009.15 1008.48 1007.90 1007.46 1007.12 1006.87 1006.67 1006.49 1006.34 1006.22 1006.16 1006.20 1006.36 1006.67 1007.11 1007.67 1008.28 1008.90 1009.48 1009.97 1010.35 1010.63 1010.83 1010.99 1011.16 1011.36 1011.60 1011.90 1012.23 1012.56 1012.87 1013.11 1013.30 1013.42 1013.49 1013.55 1013.62 1013.73 1013.90
1008.81 1009.56 1010.27 1010.86 1011.26 1011.42 1011.33 1011.03 1010.56 1010.01 1009.43 1008.89 1008.42 1008.03 1007.71 1007.42 1007.15 1006.88 1006.62 1006.38 1006.19 1006.11 1006.16 1006.37 1006.73 1007.21 1007.77 1008.34 1008.88 1009.35 1009.73 1010.02 1010.25 1010.45 1010.67 1010.92 1011.22 1011.56 1011.93 1012.29 1012.61 1012.85 1013.02 1013.12 1013.16 1013.18 1013.22 1013.31 1013.45
1008.14 1008.84 1009.51 1010.08 1010.50 1010.73 1010.76 1010.62 1010.36 1010.02 1009.66 1009.32 1009.00 1008.72 1008.44 1008.16 1007.85 1007.50 1007.14 1006.78 1006.49 1006.31 1006.26 1006.37 1006.65 1007.05 1007.54 1008.05 1008.54 1008.98 1009.34 1009.63 1009.87 1010.10 1010.36 1010.66 1011.01 1011.40 1011.80 1012.19 1012.51 1012.76 1012.92 1012.99 1013.01 1013.01 1013.03 1013.09 1013.22
1007.48 1008.08 1008.66 1009.17 1009.58 1009.86 1010.01 1010.05 1010.00 1009.91 1009.79 1009.67 1009.54 1009.39 1009.20 1008.94 1008.61 1008.22 1007.79 1007.36 1007.00 1006.74 1006.62 1006.67 1006.88 1007.22 1007.64 1008.10 1008.54 1008.93 1009.26 1009.53 1009.78 1010.03 1010.31 1010.65 1011.04 1011.47 1011.90 1012.31 1012.65 1012.89 1013.04 1013.10 1013.10 1013.08 1013.08 1013.13 1013.26
Thickness
5812 5816 5817 5812 5805 5798 5784 5789 5796 5794 5792 5797 5798 5794 5787 5782 5777 5767 5786 5795 5795 5796 5795 5791 5789 5790 5790 5790 5790 5790 5790 5790 5790 5790 5789 5789 5788 5787 5785 5784 5782 5781 5781 5779 5777 5776 5774 5772 5771
5821 5820 5815 5811 5803 5784 5779 5792 5792 5793 5796 5801 5800 5796 5790 5784 5788 5786 5790 5793 5796 5796 5795 5791 5788 5789 5789 5788 5788 5789 5789 5789 5789 5788 5788 5787 5786 5785 5783 5782 5781 5780 5779 5778 5776 5774 5772 5771 5769
5824 5822 5815 5813 5799 5787 5782 5793 5795 5798 5802 5800 5795 5796 5789 5783 5788 5789 5792 5795 5797 5796 5794 5789 5787 5787 5787 5787 5787 5788 5789 5788 5787 5787 5786 5785 5784 5783 5781 5780 5779 5778 5777 5776 5774 5772 5771 5769 5768
5825 5821 5819 5810 5793 5797 5798 5800 5802 5799 5800 5801 5798 5790 5789 5791 5792 5794 5796 5797 5797 5795 5793 5789 5787 5787 5786 5786 5787 5788 5787 5787 5786 5785 5784 5783 5782 5781 5780 5779 5778 5776 5775 5774 5773 5771 5769 5767 5766
5827 5821 5811 5803 5798 5803 5809 5808 5807 5800 5797 5799 5798 5787 5782 5791 5798 5798 5797 5797 5795 5794 5793 5788 5785 5786 5786 5785 5786 5787 5786 5785 5784 5783 5782 5781 5780 5779 5778 5777 5776 5774 5773 5772 5770 5769 5767 5765 5764
5826 5824 5807 5794 5796 5805 5810 5812 5809 5802 5798 5799 5797 5788 5782 5793 5795 5796 5798 5797 5796 5794 5792 5788 5784 5784 5784 5784 5785 5785 5784 5783 5782 5782 5781 5780 5778 5777 5776 5775 5774 5772 5771 5770 5768 5767 5765 5764 5764
5822 5821 5807 5804 5799 5802 5808 5816 5810 5804 5799 5800 5802 5789 5786 5791 5795 5797 5798 5796 5796 5795 5793 5790 5788 5785 5783 5784 5784 5783 5782 5781 5781 5780 5779 5778 5777 5776 5775 5773 5772 5771 5769 5768 5767 5766 5764 5763 5763
5834 5826 5814 5810 5804 5801 5814 5816 5815 5809 5801 5809 5807 5792 5785 5790 5796 5798 5797 5796 5794 5794 5793 5791 5790 5788 5788 5786 5783 5782 5781 5780 5780 5778 5778 5777 5777 5776 5774 5773 5771 5770 5768 5767 5766 5765 5764 5763 5762
5838 5824 5810 5811 5808 5808 5817 5813 5814 5818 5811 5808 5808 5805 5801 5799 5798 5795 5793 5792 5790 5790 5792 5792 5791 5790 5789 5787 5783 5782 5780 5779 5780 5779 5777 5778 5779 5778 5776 5773 5771 5769 5768 5767 5766 5765 5764 5763 5762
5834 5819 5815 5823 5823 5819 5818 5815 5814 5812 5805 5802 5801 5802 5803 5799 5796 5793 5791 5788 5788 5787 5790 5790 5790 5790 5789 5787 5784 5783 5782 5781 5780 5779 5779 5779 5778 5778 5777 5772 5770 5769 5768 5767 5766 5765 5764 5765 5765
5833 5823 5826 5829 5832 5828 5821 5819 5822 5813 5804 5805 5801 5799 5800 5798 5795 5794 5792 5791 5790 5789 5789 5790 5790 5788 5788 5786 5785 5783 5782 5781 5780 5779 5778 5778 5779 5778 5777 5775 5772 5770 5769 5769 5767 5767 5768 5767 5766
5831 5830 5832 5832 5834 5829 5824 5823 5819 5816 5814 5819 5815 5809 5803 5799 5796 5794 5792 5791 5791 5789 5789 5790 5789 5787 5785 5785 5784 5783 5783 5782 5781 5778 5778 5778 5778 5777 5776 5774 5773 5772 5771 5769 5769 5768 5767 5766 5765
5830 5829 5834 5836 5834 5832 5828 5823 5819 5816 5821 5822 5816 5810 5805 5802 5800 5798 5796 5794 5792 5789 5789 5789 5787 5785 5783 5782 5782 5783 5782 5782 5780 5777 5776 5777 5778 5776 5775 5773 5772 5772 5771 5770 5768 5767 5766 5765 5765
5834 5834 5834 5835 5833 5831 5824 5821 5819 5816 5822 5817 5813 5809 5808 5805 5803 5798 5795 5793 5792 5790 5789 5789 5787 5785 5783 5782 5781 5782 5782 5780 5780 5778 5777 5776 5776 5775 5774 5773 5771 5771 5770 5770 5768 5767 5766 5765 5764
5840 5830 5830 5831 5831 5830 5825 5813 5816 5821 5821 5814 5811 5809 5808 5806 5804 5800 5798 5795 5794 5791 5790 5788 5788 5787 5784 5783 5783 5783 5782 5782 5780 5778 5776 5775 5775 5773 5772 5772 5771 5770 5769 5767 5767 5766 5766 5764 5764
5837 5829 5819 5826 5830 5830 5820 5805 5818 5824 5819 5813 5812 5809 5807 5806 5806 5804 5802 5798 5797 5794 5791 5790 5791 5788 5785 5783 5782 5783 5782 5781 5780 5778 5776 5775 5774 5773 5772 5772 5772 5769 5769 5768 5766 5766 5765 5764 5763
5828 5820 5817 5821 5831 5829 5821 5812 5820 5826 5820 5814 5812 5810 5808 5806 5806 5806 5804 5801 5798 5795 5792 5789 5789 5788 5786 5784 5782 5782 5781 5780 5780 5778 5777 5774 5773 5773 5773 5772 5770 5769 5769 5768 5768 5766 5765 5762 5761
5816 5819 5818 5818 5829 5826 5819 5818 5823 5825 5822 5817 5814 5812 5810 5808 5808 5809 5806 5804 5800 5797 5794 5792 5789 5787 5787 5785 5783 5782 5781 5781 5780 5778 5776 5774 5773 5772 5772 5772 5769 5770 5769 5767 5765 5763 5762 5762 5761
5826 5821 5818 5823 5833 5826 5820 5820 5824 5826 5823 5819 5816 5815 5812 5812 5814 5812 5809 5806 5802 5798 5795 5792 5790 5788 5787 5785 5784 5781 5780 5780 5779 5778 5775 5774 5773 5772 5771 5772 5769 5768 5767 5765 5765 5763 5761 5761 5762
5824 5818 5820 5825 5832 5825 5822 5823 5830 5829 5825 5824 5821 5818 5817 5816 5814 5811 5809 5807 5803 5799 5796 5794 5791 5790 5788 5787 5785 5783 5782 5781 5780 5778 5775 5774 5773 5772 5772 5769 5769 5768 5765 5763 5763 5761 5761 5761 5761
5823 5821 5820 5819 5826 5830 5822 5818 5824 5830 5831 5829 5827 5826 5825 5821 5816 5812 5810 5808 5806 5802 5799 5798 5794 5792 5790 5789 5787 5784 5781 5780 5779 5777 5776 5774 5773 5772 5770 5769 5769 5767 5767 5765 5762 5761 5759 5758 5760
5817 5831 5827 5822 5816 5817 5819 5806 5821 5828 5825 5826 5827 5828 5827 5825 5822 5818 5814 5810 5808 5806 5804 5800 5796 5793 5791 5789 5788 5785 5780 5778 5778 5778 5777 5775 5773 5772 5771 5769 5768 5767 5767 5764 5763 5763 5761 5758 5757
5825 5832 5828 5823 5818 5815 5820 5811 5821 5830 5822 5826 5830 5832 5831 5830 5826 5822 5818 5815 5813 5810 5807 5803 5798 5793 5791 5790 5787 5784 5783 5781 5780 5779 5776 5774 5773 5772 5770 5769 5767 5765 5765 5763 5762 5760 5760 5759 5757
5829 5824 5823 5823 5820 5799 5811 5808 5811 5830 5829 5832 5836 5836 5835 5833 5830 5826 5823 5819 5815 5813 5809 5804 5798 5794 5792 5790 5788 5785 5783 5781 5778 5776 5775 5775 5774 5772 5770 5768 5766 5765 5764 5761 5760 5759 5758 5757 5755
5822 5810 5797 5794 5796 5799 5816 5810 5815 5836 5841 5840 5839 5839 5838 5836 5832 5827 5822 5818 5815 5812 5809 5806 5800 5795 5793 5791 5788 5786 5783 5781 5778 5776 5775 5774 5774 5772 5768 5768 5764 5763 5761 5760 5759 5757 5757 5755 5753
5816 5814 5793 5783 5790 5804 5809 5807 5824 5842 5845 5846 5845 5843 5839 5836 5834 5830 5826 5821 5817 5814 5811 5807 5802 5797 5795 5792 5789 5787 5784 5783 5782 5778 5777 5774 5773 5773 5769 5765 5763 5761 5759 5759 5757 5757 5755 5753 5751
5810 5812 5823 5810 5804 5797 5807 5815 5829 5840 5838 5840 5840 5838 5836 5835 5833 5831 5828 5824 5819 5815 5812 5809 5804 5799 5797 5794 5790 5787 5785 5783 5781 5778 5776 5775 5772 5771 5768 5765 5761 5759 5757 5756 5755 5754 5752 5750 5750
5820 5818 5811 5803 5782 5781 5796 5804 5813 5823 5828 5832 5833 5833 5833 5834 5833 5830 5828 5825 5822 5818 5814 5810 5806 5801 5798 5795 5792 5790 5786 5783 5780 5778 5774 5772 5770 5768 5766 5763 5761 5758 5756 5754 5752 5751 5749 5747 5745
5804 5805 5805 5805 5803 5788 5785 5802 5831 5828 5831 5831 5832 5833 5833 5832 5831 5829 5827 5825 5823 5819 5815 5809 5805 5801 5798 5796 5793 5790 5787 5784 5780 5777 5774 5771 5768 5766 5763 5761 5759 5756 5753 5751 5748 5748 5745 5742 5740
5812 5808 5804 5791 5788 5794 5794 5802 5836 5834 5836 5833 5832 5831 5832 5832 5831 5829 5826 5823 5820 5817 5814 5809 5806 5802 5799 5796 5792 5788 5785 5783 5780 5777 5773 5770 5766 5764 5761 5758 5756 5753 5751 5749 5745 5742 5741 5738 5736